Location: Monteux
(44.0348°N, 4.9972°E)
Time: 14:43:24
(UTC+00:00)

Cosmos 1515 Rocket - Pass Details

Date: 30 November 2020
Orbit: 605 x 631 km, 82.5° (Epoch: 26 January)

Event Time Altitude Azimuth Distance (km) Brightness Sun altitude
Rises 16:56:27 0° 161° (SSE) 2,866 7.0 -9.4°
Reaches altitude 10° 16:58:50 10° 150° (SSE) 1,971 6.1 -9.8°
Maximum altitude 17:02:38 30° 90° (E) 1,119 4.4 -10.5°
Drops below altitude 10° 17:06:30 10° 29° (NNE) 2,000 5.7 -11.1°
Enters shadow 17:07:30 - 24° (NNE) 2,367 6.1 -11.3°
